Lusaka, Zambia

12:55 PM CAT on June 26, 2017 (GMT +0200)
Lusaka

Weather History for FLLS - February, 2013

Change the Weather History Date:

Saturday, February 16, 2013

  Actual Average Record
Temperature  
Mean Temperature 72 °F -  
Max Temperature 80 °F 77 °F 86 °F (1998)
Min Temperature 64 °F 64 °F 62 °F (2007)
Cooling Degree Days 7    
Growing Degree Days 22 (Base 50)    
Moisture  
Dew Point 68 °F    
Average Humidity 90    
Maximum Humidity 100    
Minimum Humidity 75    
Precipitation  
Precipitation 0.00 in 0.18 in - ()
Sea Level Pressure  
Sea Level Pressure 30.04 in    
Wind  
Wind Speed 4 mph ()    
Max Wind Speed 13 mph    
Max Gust Speed -    
Visibility 6.8 miles    
Events Rain    
Averages and records for this station are not official NWS values.
T = Trace of Precipitation, MM = Missing Value Source: Averaged Metar Reports

Daily Weather History Graph

Daily Weather History Graph

Search for Another Location

Airport or City:

Trip Planner

Search our weather history database for the weather conditions in past years. The results will help you decide how hot, cold, wet, or windy it might be!

Date:

Astronomy

Feb. 16, 2013 Rise Set
Actual Time 6:03 AM CAT 6:37 PM CAT
Civil Twilight 5:40 AM CAT 6:59 PM CAT
Nautical Twilight 5:15 AM CAT 7:25 PM CAT
Astronomical Twilight 4:49 AM CAT 7:51 PM CAT
Moon 11:14 AM CAT (2/16) 10:58 PM CAT (2/16)
Length of Visible Light 13h 18m
Length of Day
12h 34m
Waxing Crescent, 36% of the Moon is Illuminated
Feb 16
Waxing Crescent
Feb 17
First Quarter
Feb 25
Full
Mar 4
Last Quarter
Mar 11
New

Hourly Weather History & Observations

Time (CAT) Temp. Heat Index Dew Point Humidity Pressure Visibility Wind Dir Wind Speed Gust Speed Precip Events Conditions
12:00 AM 66.2 °F - 64.4 °F 94% 30.04 in - Calm Calm - N/A   Clear
2:00 AM 64.4 °F - 62.6 °F 94% 30.04 in - West 6.9 mph - N/A   Clear
5:00 AM 64.4 °F - 64.4 °F 100% 30.06 in 5.6 mi South 2.3 mph - N/A Rain Rain
6:00 AM 64.4 °F - 64.4 °F 100% 30.04 in 5.6 mi WSW 6.9 mph - N/A Rain Rain
7:00 AM 66.2 °F - 66.2 °F 100% 30.06 in 6.2 mi West 4.6 mph - N/A   Partly Cloudy
8:00 AM 67 °F - 66 °F 96%  in 6 mi WNW 9.2 mph - -   Scattered Clouds
8:00 AM 68.0 °F - 66.2 °F 94% 30.06 in 6.2 mi WNW 9.2 mph - N/A   Partly Cloudy
9:00 AM 68.0 °F - 66.2 °F 94% 30.09 in 6.2 mi West 4.6 mph - N/A   Mostly Cloudy
10:00 AM 69.8 °F - 68.0 °F 94% 30.09 in 6.2 mi WSW 3.5 mph - N/A   Mostly Cloudy
11:00 AM 69.8 °F - 68.0 °F 94% 30.12 in 5.6 mi WNW 3.5 mph - N/A Rain Light Rain Showers
2:00 PM 78 °F - 71 °F 75%  in 19 mi South 3.5 mph - -  
2:00 PM 77.0 °F - 71.6 °F 83% 30.01 in 6.2 mi South 3.5 mph - N/A   Mostly Cloudy
3:00 PM 78.8 °F - 73.4 °F 83% 30.01 in 6.2 mi South 3.5 mph - N/A   Mostly Cloudy
4:00 PM 80.6 °F 86.2 °F 75.2 °F 84% 29.98 in 6.2 mi SSE 4.6 mph - N/A   Scattered Clouds
5:00 PM 77.0 °F - 71.6 °F 83% 29.98 in 6.2 mi South 12.7 mph - N/A   Partly Cloudy
6:00 PM 78.8 °F - 73.4 °F 83% 29.98 in 6.2 mi South 5.8 mph - N/A   Mostly Cloudy
7:00 PM 73.4 °F - 71.6 °F 94% 30.01 in 6.2 mi WSW 11.5 mph - N/A   Scattered Clouds
8:00 PM 71.6 °F - 69.8 °F 94% 30.04 in 6.2 mi SE 3.5 mph - N/A   Scattered Clouds
9:00 PM 68.0 °F - 64.4 °F 88% 30.04 in 6.2 mi SE 2.3 mph - N/A   Scattered Clouds
10:00 PM 68.0 °F - 62.6 °F 83% 30.06 in 6.2 mi Calm Calm - N/A   Scattered Clouds
11:00 PM 66.2 °F - 59.0 °F 78% 30.06 in 6.2 mi Calm Calm - N/A   Scattered Clouds